Terminal Aerodrome Forecast
Issued by NWS Wilmington, NC

Home | Current Version | Previous Version | Text Only | Print | Product List | Glossary On
Versions: 1 2 3 4 5 6 7 8 9 10 11 12 13 14 15 16 17 18 19
000
FTUS42 KILM 220500
TAFLBT
TAF
KLBT 220525Z 2206/2306 33007KT P6SM SCT070 OVC090
     FM221400 33014G20KT P6SM SKC
     FM222300 32010KT P6SM SKC=

USA.gov is the U.S. government's official web portal to all federal, state and local government web resources and services.